Time,TemperatureF,DewpointF,PressureIn,WindDirection,WindDirectionDegrees,WindSpeedMPH,WindSpeedGustMPH,Humidity,HourlyPrecipIn,Conditions,Clouds,dailyrainin,SolarRadiationWatts/m^2,SoftwareType,DateUTC
2013-06-26 00:01:00,80.7,72.4,29.71,South,182,2.3,2.3,76,0.00,BKN,,0.01,0.0,WeatherDisplay:10.37,2013-06-26 05:01:00,
2013-06-26 00:06:00,80.6,72.3,29.71,South,186,4.6,4.6,76,0.00,BKN,,0.01,0.0,WeatherDisplay:10.37,2013-06-26 05:06:00,
2013-06-26 00:11:00,80.5,72.6,29.71,SE,144,3.5,3.5,77,0.00,BKN,,0.01,0.0,WeatherDisplay:10.37,2013-06-26 05:11:00,
2013-06-26 00:16:00,80.5,72.6,29.71,South,185,3.5,3.5,77,0.00,BKN,,0.01,0.0,WeatherDisplay:10.37,2013-06-26 05:16:00,
2013-06-26 00:21:00,80.3,72.4,29.71,South,190,3.5,3.5,77,0.00,BKN,,0.01,0.0,WeatherDisplay:10.37,2013-06-26 05:21:00,
2013-06-26 00:26:00,80.3,72.4,29.71,SSE,167,4.6,4.6,77,0.00,BKN,,0.01,0.0,WeatherDisplay:10.37,2013-06-26 05:26:00,
2013-06-26 00:31:00,80.2,72.7,29.71,South,185,4.6,4.6,78,0.00,BKN,,0.01,0.0,WeatherDisplay:10.37,2013-06-26 05:31:00,
2013-06-26 00:36:00,80.0,72.5,29.71,SE,145,3.5,3.5,78,0.00,BKN,,0.01,0.0,WeatherDisplay:10.37,2013-06-26 05:36:00,
2013-06-26 00:41:00,80.0,72.5,29.71,SSE,158,2.3,2.3,78,0.00,BKN,,0.01,0.0,WeatherDisplay:10.37,2013-06-26 05:41:00,
2013-06-26 00:46:00,79.9,72.4,29.71,SSE,158,3.5,3.5,78,0.00,BKN,,0.01,0.0,WeatherDisplay:10.37,2013-06-26 05:46:00,
2013-06-26 00:51:00,79.8,72.3,29.72,SSE,148,3.5,3.5,78,0.00,BKN,,0.01,0.0,WeatherDisplay:10.37,2013-06-26 05:51:00,
2013-06-26 00:56:00,79.7,72.6,29.71,SSE,163,3.5,3.5,79,0.00,BKN,,0.01,0.0,WeatherDisplay:10.37,2013-06-26 05:56:00,
2013-06-26 01:01:00,79.6,72.5,29.72,SSE,167,3.0,3.0,79,0.00,RA,,0.00,0.0,WeatherDisplay:10.37,2013-06-26 06:01:00,
2013-06-26 01:06:00,79.6,72.5,29.72,SSE,151,2.3,2.3,79,0.00,BKN,,0.00,0.0,WeatherDisplay:10.37,2013-06-26 06:06:00,
2013-06-26 01:11:00,79.5,72.4,29.72,South,182,3.5,3.5,79,0.00,BKN,,0.00,0.0,WeatherDisplay:10.37,2013-06-26 06:11:00,
2013-06-26 01:16:00,79.4,72.7,29.72,ESE,116,5.8,5.8,80,0.00,BKN,,0.00,0.0,WeatherDisplay:10.37,2013-06-26 06:16:00,
2013-06-26 01:21:00,79.3,72.6,29.72,SE,129,5.8,5.8,80,0.00,BKN,,0.00,0.0,WeatherDisplay:10.37,2013-06-26 06:21:00,
2013-06-26 01:26:00,79.2,72.5,29.72,SE,143,3.5,3.5,80,0.00,BKN,,0.00,0.0,WeatherDisplay:10.37,2013-06-26 06:26:00,
2013-06-26 01:31:00,79.1,72.4,29.72,South,181,4.0,4.0,80,0.00,BKN,,0.00,0.0,WeatherDisplay:10.37,2013-06-26 06:31:00,
2013-06-26 01:36:00,79.0,72.3,29.71,SE,146,3.5,3.5,80,0.00,BKN,,0.00,0.0,WeatherDisplay:10.37,2013-06-26 06:36:00,
2013-06-26 01:41:00,78.8,72.5,29.71,SSW,193,2.3,2.3,81,0.00,BKN,,0.00,0.0,WeatherDisplay:10.37,2013-06-26 06:41:00,
2013-06-26 01:46:00,78.7,72.4,29.71,SSE,163,1.2,1.2,81,0.00,BKN,,0.00,0.0,WeatherDisplay:10.37,2013-06-26 06:46:00,
2013-06-26 01:51:00,78.6,72.3,29.71,SSE,147,3.5,3.5,81,0.00,BKN,,0.00,0.0,WeatherDisplay:10.37,2013-06-26 06:51:00,
2013-06-26 01:56:00,78.5,72.2,29.71,SSE,158,1.2,1.2,81,0.00,BKN,,0.00,0.0,WeatherDisplay:10.37,2013-06-26 06:56:00,
2013-06-26 02:01:00,78.4,72.4,29.71,SSE,160,3.5,3.5,82,0.00,BKN,,0.00,0.0,WeatherDisplay:10.37,2013-06-26 07:01:00,
2013-06-26 02:06:00,78.3,72.3,29.71,SSE,159,3.5,3.5,82,0.00,BKN,,0.00,0.0,WeatherDisplay:10.37,2013-06-26 07:06:00,
2013-06-26 02:11:00,78.3,72.3,29.71,SSW,195,3.5,3.5,82,0.00,BKN,,0.00,0.0,WeatherDisplay:10.37,2013-06-26 07:11:00,
2013-06-26 02:16:00,78.2,72.3,29.70,SSW,197,4.6,4.6,82,0.00,BKN,,0.00,0.0,WeatherDisplay:10.37,2013-06-26 07:16:00,
2013-06-26 02:21:00,78.1,72.2,29.70,South,181,2.3,2.3,82,0.00,BKN,,0.00,0.0,WeatherDisplay:10.37,2013-06-26 07:21:00,
2013-06-26 02:26:00,78.0,72.1,29.70,South,175,3.5,3.5,82,0.00,BKN,,0.00,0.0,WeatherDisplay:10.37,2013-06-26 07:26:00,
2013-06-26 02:31:00,77.9,72.0,29.70,South,180,3.5,3.5,82,0.00,BKN,,0.00,0.0,WeatherDisplay:10.37,2013-06-26 07:31:00,
2013-06-26 02:36:00,77.8,72.2,29.70,ESE,121,1.2,0.0,83,0.00,BKN,,0.00,0.0,WeatherDisplay:10.37,2013-06-26 07:36:00,
2013-06-26 02:41:00,77.7,72.1,29.70,SE,141,1.2,0.0,83,0.00,BKN,,0.00,0.0,WeatherDisplay:10.37,2013-06-26 07:41:00,
2013-06-26 02:46:00,77.6,72.0,29.70,SSE,160,1.2,1.2,83,0.00,BKN,,0.00,0.0,WeatherDisplay:10.37,2013-06-26 07:46:00,
2013-06-26 02:51:00,77.5,71.9,29.69,SE,136,3.5,3.5,83,0.00,BKN,,0.00,0.0,WeatherDisplay:10.37,2013-06-26 07:51:00,
2013-06-26 02:56:00,77.4,71.8,29.69,SW,236,3.5,3.5,83,0.00,BKN,,0.00,0.0,WeatherDisplay:10.37,2013-06-26 07:56:00,
2013-06-26 03:01:00,77.4,71.8,29.69,SSE,157,3.5,3.5,83,0.00,BKN,,0.00,0.0,WeatherDisplay:10.37,2013-06-26 08:01:00,
2013-06-26 03:06:00,77.3,71.7,29.69,SE,138,1.2,1.2,83,0.00,BKN,,0.00,0.0,WeatherDisplay:10.37,2013-06-26 08:06:00,
2013-06-26 03:11:00,77.2,71.6,29.69,South,169,1.2,1.2,83,0.00,BKN,,0.00,0.0,WeatherDisplay:10.37,2013-06-26 08:11:00,
2013-06-26 03:16:00,77.1,71.5,29.69,SSE,156,5.8,5.8,83,0.00,BKN,,0.00,0.0,WeatherDisplay:10.37,2013-06-26 08:16:00,
2013-06-26 03:21:00,77.0,71.4,29.69,SE,135,2.3,2.3,83,0.00,BKN,,0.00,0.0,WeatherDisplay:10.37,2013-06-26 08:21:00,
2013-06-26 03:26:00,76.9,71.3,29.69,South,173,3.5,3.5,83,0.00,BKN,,0.00,0.0,WeatherDisplay:10.37,2013-06-26 08:26:00,
2013-06-26 03:31:00,76.8,71.6,29.69,SE,126,1.2,0.0,84,0.00,BKN,,0.00,0.0,WeatherDisplay:10.37,2013-06-26 08:31:00,
2013-06-26 03:36:00,76.7,71.5,29.69,SE,142,1.0,0.0,84,0.00,BKN,,0.00,0.0,WeatherDisplay:10.37,2013-06-26 08:36:00,
2013-06-26 03:41:00,76.7,71.5,29.68,SSE,148,3.5,3.5,84,0.00,BKN,,0.00,0.0,WeatherDisplay:10.37,2013-06-26 08:41:00,
2013-06-26 03:46:00,76.6,71.4,29.69,South,180,2.3,2.3,84,0.00,BKN,,0.00,0.0,WeatherDisplay:10.37,2013-06-26 08:46:00,
2013-06-26 03:51:00,76.5,71.3,29.69,SSE,165,1.2,1.2,84,0.00,BKN,,0.00,0.0,WeatherDisplay:10.37,2013-06-26 08:51:00,
2013-06-26 03:56:00,76.4,71.2,29.69,SSE,159,2.3,2.3,84,0.00,BKN,,0.00,0.0,WeatherDisplay:10.37,2013-06-26 08:56:00,
2013-06-26 04:01:00,76.3,71.1,29.69,ESE,121,3.0,3.0,84,0.00,BKN,,0.00,0.0,WeatherDisplay:10.37,2013-06-26 09:01:00,
2013-06-26 04:06:00,76.2,71.0,29.69,SSE,150,2.3,2.3,84,0.00,BKN,,0.00,0.0,WeatherDisplay:10.37,2013-06-26 09:06:00,
2013-06-26 04:11:00,76.0,70.8,29.69,SSE,168,5.8,5.8,84,0.00,SCT,,0.00,0.0,WeatherDisplay:10.37,2013-06-26 09:11:00,
2013-06-26 04:16:00,75.9,71.1,29.69,SE,128,1.2,1.2,85,0.00,SCT,,0.00,0.0,WeatherDisplay:10.37,2013-06-26 09:16:00,
2013-06-26 04:21:00,75.8,71.0,29.69,ESE,121,2.3,2.3,85,0.00,SCT,,0.00,0.0,WeatherDisplay:10.37,2013-06-26 09:21:00,
2013-06-26 04:26:00,75.6,70.8,29.70,SSE,168,0.0,0.0,85,0.00,SCT,,0.00,0.0,WeatherDisplay:10.37,2013-06-26 09:26:00,
2013-06-26 04:31:00,75.6,70.8,29.70,South,175,3.5,3.5,85,0.00,SCT,,0.00,0.0,WeatherDisplay:10.37,2013-06-26 09:31:00,
2013-06-26 04:36:00,75.4,70.6,29.70,South,169,3.5,3.5,85,0.00,SCT,,0.00,0.0,WeatherDisplay:10.37,2013-06-26 09:36:00,
2013-06-26 04:41:00,75.3,70.5,29.70,SE,135,4.6,4.6,85,0.00,SCT,,0.00,0.0,WeatherDisplay:10.37,2013-06-26 09:41:00,
2013-06-26 04:46:00,75.3,70.5,29.70,ESE,108,3.5,3.5,85,0.00,SCT,,0.00,0.0,WeatherDisplay:10.37,2013-06-26 09:46:00,
2013-06-26 04:51:00,75.3,70.5,29.70,SSE,155,2.3,2.3,85,0.00,SCT,,0.00,0.0,WeatherDisplay:10.37,2013-06-26 09:51:00,
2013-06-26 04:56:00,75.2,70.4,29.70,SSE,150,2.3,2.3,85,0.00,SCT,,0.00,0.0,WeatherDisplay:10.37,2013-06-26 09:56:00,
2013-06-26 05:01:00,75.1,70.3,29.70,SE,138,2.3,2.3,85,0.00,SCT,,0.00,0.0,WeatherDisplay:10.37,2013-06-26 10:01:00,
2013-06-26 05:06:00,75.0,70.2,29.71,South,176,0.0,0.0,85,0.00,SCT,,0.00,0.0,WeatherDisplay:10.37,2013-06-26 10:06:00,
2013-06-26 05:11:00,75.0,70.2,29.71,South,173,1.2,1.2,85,0.00,SCT,,0.00,0.0,WeatherDisplay:10.37,2013-06-26 10:11:00,
2013-06-26 05:16:00,74.9,70.1,29.71,South,182,3.5,3.5,85,0.00,SCT,,0.00,0.0,WeatherDisplay:10.37,2013-06-26 10:16:00,
2013-06-26 05:21:00,74.8,70.3,29.71,SSW,198,4.0,4.0,86,0.00,SCT,,0.00,0.0,WeatherDisplay:10.37,2013-06-26 10:21:00,
2013-06-26 05:26:00,74.8,70.3,29.71,South,181,1.2,1.2,86,0.00,SCT,,0.00,0.0,WeatherDisplay:10.37,2013-06-26 10:26:00,
2013-06-26 05:31:00,74.6,70.1,29.71,South,186,3.5,3.5,86,0.00,SCT,,0.00,0.0,WeatherDisplay:10.37,2013-06-26 10:31:00,
2013-06-26 05:36:00,74.6,70.1,29.72,South,179,2.3,2.3,86,0.00,SCT,,0.00,0.0,WeatherDisplay:10.37,2013-06-26 10:36:00,
2013-06-26 05:41:00,74.4,69.9,29.72,SSE,163,0.0,0.0,86,0.00,SCT,,0.00,0.0,WeatherDisplay:10.37,2013-06-26 10:41:00,
2013-06-26 05:46:00,74.3,69.8,29.72,South,169,3.5,3.5,86,0.00,SCT,,0.00,0.0,WeatherDisplay:10.37,2013-06-26 10:46:00,
2013-06-26 05:51:00,74.2,69.7,29.72,SSE,157,3.5,3.5,86,0.00,SCT,,0.00,0.0,WeatherDisplay:10.37,2013-06-26 10:51:00,
2013-06-26 05:56:00,74.0,69.9,29.72,SSE,157,0.0,0.0,87,0.00,SCT,,0.00,0.0,WeatherDisplay:10.37,2013-06-26 10:56:00,
2013-06-26 06:01:00,73.9,69.8,29.73,SE,132,1.0,1.0,87,0.00,SCT,,0.00,0.0,WeatherDisplay:10.37,2013-06-26 11:01:00,
2013-06-26 06:06:00,73.8,69.7,29.73,South,175,3.0,3.0,87,0.00,SCT,,0.00,0.0,WeatherDisplay:10.37,2013-06-26 11:06:00,
2013-06-26 06:11:00,73.7,69.6,29.73,South,178,3.5,0.0,87,0.00,SCT,,0.00,0.0,WeatherDisplay:10.37,2013-06-26 11:11:00,
2013-06-26 06:16:00,73.6,69.5,29.73,SSE,150,0.0,0.6,87,0.00,SCT,,0.00,5.0,WeatherDisplay:10.37,2013-06-26 11:16:00,
2013-06-26 06:21:00,73.5,69.4,29.73,South,178,2.3,2.3,87,0.00,SCT,,0.00,7.0,WeatherDisplay:10.37,2013-06-26 11:21:00,
2013-06-26 06:26:00,73.5,69.4,29.73,South,175,1.2,1.2,87,0.00,SCT,,0.00,9.0,WeatherDisplay:10.37,2013-06-26 11:26:00,
2013-06-26 06:31:00,73.5,69.4,29.73,SE,126,2.3,2.3,87,0.00,SCT,,0.00,12.0,WeatherDisplay:10.37,2013-06-26 11:31:00,
2013-06-26 06:36:00,73.5,69.4,29.74,SE,146,1.2,1.2,87,0.00,SCT,,0.00,16.0,WeatherDisplay:10.37,2013-06-26 11:36:00,
2013-06-26 06:41:00,73.5,69.4,29.73,SSE,167,2.3,2.3,87,0.00,SCT,,0.00,18.0,WeatherDisplay:10.37,2013-06-26 11:41:00,
2013-06-26 06:46:00,73.5,69.4,29.74,SSE,165,1.2,1.2,87,0.00,SCT,,0.00,21.0,WeatherDisplay:10.37,2013-06-26 11:46:00,
2013-06-26 06:51:00,73.5,69.4,29.74,SE,142,1.2,1.2,87,0.00,SCT,,0.00,23.0,WeatherDisplay:10.37,2013-06-26 11:51:00,
2013-06-26 06:56:00,73.5,69.4,29.74,SW,227,2.3,2.3,87,0.00,SCT,,0.00,26.0,WeatherDisplay:10.37,2013-06-26 11:56:00,
2013-06-26 07:01:00,73.5,69.4,29.74,SSW,194,0.0,0.0,87,0.00,SCT,,0.00,28.0,WeatherDisplay:10.37,2013-06-26 12:01:00,
2013-06-26 07:06:00,73.5,69.4,29.74,SSE,147,1.2,1.2,87,0.00,SCT,,0.00,32.0,WeatherDisplay:10.37,2013-06-26 12:06:00,
2013-06-26 07:11:00,73.5,69.4,29.74,SSE,156,1.2,1.2,87,0.00,SCT,,0.00,33.0,WeatherDisplay:10.37,2013-06-26 12:11:00,
2013-06-26 07:16:00,73.6,69.2,29.74,SSE,157,1.2,0.0,86,0.00,SCT,,0.00,35.0,WeatherDisplay:10.37,2013-06-26 12:16:00,
2013-06-26 07:21:00,73.8,69.3,29.74,South,186,3.0,3.0,86,0.00,SCT,,0.00,37.0,WeatherDisplay:10.37,2013-06-26 12:21:00,
2013-06-26 07:26:00,73.9,69.4,29.74,South,171,3.5,3.5,86,0.00,SCT,,0.00,40.0,WeatherDisplay:10.37,2013-06-26 12:26:00,
2013-06-26 07:31:00,74.1,69.6,29.75,South,188,3.5,3.5,86,0.00,SCT,,0.00,47.0,WeatherDisplay:10.37,2013-06-26 12:31:00,
2013-06-26 07:36:00,74.3,69.5,29.75,SSE,150,3.5,3.5,85,0.00,SCT,,0.00,60.0,WeatherDisplay:10.37,2013-06-26 12:36:00,
2013-06-26 07:41:00,74.6,69.4,29.75,South,190,3.5,3.5,84,0.00,SCT,,0.00,49.0,WeatherDisplay:10.37,2013-06-26 12:41:00,
2013-06-26 07:46:00,74.8,69.3,29.75,South,183,4.6,4.6,83,0.00,SCT,,0.00,47.0,WeatherDisplay:10.37,2013-06-26 12:46:00,
2013-06-26 07:51:00,75.2,69.7,29.75,SE,139,4.6,4.6,83,0.00,SCT,,0.00,51.0,WeatherDisplay:10.37,2013-06-26 12:51:00,
2013-06-26 07:56:00,75.4,69.5,29.75,SSW,197,3.5,3.5,82,0.00,SCT,,0.00,49.0,WeatherDisplay:10.37,2013-06-26 12:56:00,
2013-06-26 08:01:00,75.7,69.5,29.75,SE,132,3.5,3.5,81,0.00,FEW,,0.00,51.0,WeatherDisplay:10.37,2013-06-26 13:01:00,
2013-06-26 08:06:00,76.0,69.4,29.76,South,189,3.5,3.5,80,0.00,FEW,,0.00,54.0,WeatherDisplay:10.37,2013-06-26 13:06:00,
2013-06-26 08:11:00,76.2,69.6,29.76,SSE,162,4.6,4.6,80,0.00,FEW,,0.00,54.0,WeatherDisplay:10.37,2013-06-26 13:11:00,
2013-06-26 08:16:00,76.5,69.9,29.76,SE,126,3.5,3.5,80,0.00,FEW,,0.00,56.0,WeatherDisplay:10.37,2013-06-26 13:16:00,
2013-06-26 08:21:00,76.8,69.8,29.76,SSE,158,2.3,2.3,79,0.00,FEW,,0.00,58.0,WeatherDisplay:10.37,2013-06-26 13:21:00,
2013-06-26 08:26:00,77.1,69.3,29.76,SE,135,5.0,5.0,77,0.00,FEW,,0.00,62.0,WeatherDisplay:10.37,2013-06-26 13:26:00,
2013-06-26 08:31:00,77.4,69.2,29.76,SE,146,4.6,4.6,76,0.00,FEW,,0.00,65.0,WeatherDisplay:10.37,2013-06-26 13:31:00,
2013-06-26 08:36:00,77.8,69.2,29.76,SE,128,3.5,3.5,75,0.00,FEW,,0.00,69.0,WeatherDisplay:10.37,2013-06-26 13:36:00,
2013-06-26 08:41:00,78.2,69.2,29.76,South,173,4.6,4.6,74,0.00,FEW,,0.00,74.0,WeatherDisplay:10.37,2013-06-26 13:41:00,
2013-06-26 08:46:00,78.6,69.6,29.76,SSW,200,2.3,2.3,74,0.00,FEW,,0.00,79.0,WeatherDisplay:10.37,2013-06-26 13:46:00,
2013-06-26 08:51:00,79.0,69.6,29.76,SSW,205,3.5,3.5,73,0.00,FEW,,0.00,81.0,WeatherDisplay:10.37,2013-06-26 13:51:00,
2013-06-26 08:56:00,79.4,70.4,29.76,South,180,0.0,0.0,74,0.00,FEW,,0.00,91.0,WeatherDisplay:10.37,2013-06-26 13:56:00,
2013-06-26 09:01:00,79.8,70.0,29.76,SSW,193,1.2,0.0,72,0.00,FEW,,0.00,93.0,WeatherDisplay:10.37,2013-06-26 14:01:00,
2013-06-26 09:06:00,80.3,70.4,29.76,SSW,202,1.2,0.0,72,0.00,FEW,,0.00,188.0,WeatherDisplay:10.37,2013-06-26 14:06:00,
2013-06-26 09:11:00,80.8,70.5,29.76,South,180,2.3,2.3,71,0.00,FEW,,0.00,234.0,WeatherDisplay:10.37,2013-06-26 14:11:00,
2013-06-26 09:16:00,81.4,70.2,29.76,SE,146,3.5,3.5,69,0.00,FEW,,0.00,156.0,WeatherDisplay:10.37,2013-06-26 14:16:00,
2013-06-26 09:21:00,82.0,70.0,29.76,South,176,3.5,3.5,67,0.00,FEW,,0.00,299.0,WeatherDisplay:10.37,2013-06-26 14:21:00,
2013-06-26 09:26:00,82.5,70.0,29.76,SSW,194,2.3,2.3,66,0.00,FEW,,0.00,464.0,WeatherDisplay:10.37,2013-06-26 14:26:00,
2013-06-26 09:31:00,82.9,70.4,29.76,South,184,3.5,3.5,66,0.00,FEW,,0.00,243.0,WeatherDisplay:10.37,2013-06-26 14:31:00,
2013-06-26 09:36:00,83.4,71.3,29.76,South,185,2.0,2.0,67,0.00,FEW,,0.00,299.0,WeatherDisplay:10.37,2013-06-26 14:36:00,
2013-06-26 09:41:00,83.9,70.4,29.76,WSW,238,3.5,3.5,64,0.00,FEW,,0.00,93.0,WeatherDisplay:10.37,2013-06-26 14:41:00,
2013-06-26 09:46:00,84.3,70.3,29.76,SW,231,4.0,4.0,63,0.00,FEW,,0.00,93.0,WeatherDisplay:10.37,2013-06-26 14:46:00,
2013-06-26 09:51:00,84.8,70.8,29.76,SW,227,4.6,4.6,63,0.00,FEW,,0.00,97.0,WeatherDisplay:10.37,2013-06-26 14:51:00,
2013-06-26 09:56:00,85.3,70.3,29.76,West,273,5.8,5.8,61,0.00,FEW,,0.00,144.0,WeatherDisplay:10.37,2013-06-26 14:56:00,
2013-06-26 10:01:00,85.7,70.2,29.75,SSE,168,3.5,3.5,60,0.00,FEW,,0.00,107.0,WeatherDisplay:10.37,2013-06-26 15:01:00,
2013-06-26 10:06:00,86.0,70.0,29.75,SW,215,3.5,3.5,59,0.00,FEW,,0.00,84.0,WeatherDisplay:10.37,2013-06-26 15:06:00,
2013-06-26 10:11:00,86.3,70.3,29.76,South,184,4.6,4.6,59,0.00,FEW,,0.00,172.0,WeatherDisplay:10.37,2013-06-26 15:11:00,
2013-06-26 10:16:00,86.6,70.6,29.76,SSE,165,4.6,4.6,59,0.00,FEW,,0.00,613.0,WeatherDisplay:10.37,2013-06-26 15:16:00,
2013-06-26 10:21:00,86.9,71.3,29.76,West,263,4.6,4.6,60,0.00,FEW,,0.00,622.0,WeatherDisplay:10.37,2013-06-26 15:21:00,
2013-06-26 10:26:00,87.2,70.6,29.76,South,176,2.3,2.3,58,0.00,FEW,,0.00,107.0,WeatherDisplay:10.37,2013-06-26 15:26:00,
2013-06-26 10:31:00,87.6,70.0,29.76,South,189,1.2,1.2,56,0.00,FEW,,0.00,135.0,WeatherDisplay:10.37,2013-06-26 15:31:00,
2013-06-26 10:36:00,87.9,70.2,29.76,SE,145,2.0,2.0,56,0.00,FEW,,0.00,141.0,WeatherDisplay:10.37,2013-06-26 15:36:00,
2013-06-26 10:41:00,88.2,71.0,29.77,SE,135,1.2,0.0,57,0.00,FEW,,0.00,97.0,WeatherDisplay:10.37,2013-06-26 15:41:00,
2013-06-26 10:46:00,88.5,70.3,29.77,NNE,29,2.3,2.3,55,0.00,FEW,,0.00,102.0,WeatherDisplay:10.37,2013-06-26 15:46:00,
2013-06-26 10:51:00,88.6,69.8,29.77,NE,47,1.2,1.2,54,0.00,FEW,,0.00,148.0,WeatherDisplay:10.37,2013-06-26 15:51:00,
2013-06-26 10:56:00,89.0,70.7,29.78,NE,47,1.2,1.2,55,0.00,FEW,,0.00,264.0,WeatherDisplay:10.37,2013-06-26 15:56:00,
2013-06-26 11:01:00,89.2,70.4,29.77,SSE,149,2.0,2.0,54,0.00,FEW,,0.00,190.0,WeatherDisplay:10.37,2013-06-26 16:01:00,
2013-06-26 11:06:00,89.4,70.0,29.77,SSE,149,0.0,0.1,53,0.00,FEW,,0.00,156.0,WeatherDisplay:10.37,2013-06-26 16:06:00,
2013-06-26 11:11:00,89.7,69.7,29.77,North,355,1.2,1.2,52,0.00,FEW,,0.00,114.0,WeatherDisplay:10.37,2013-06-26 16:11:00,
2013-06-26 11:16:00,89.9,71.6,29.77,North,355,1.2,1.2,55,0.00,FEW,,0.00,107.0,WeatherDisplay:10.37,2013-06-26 16:16:00,
2013-06-26 11:21:00,90.2,71.3,29.77,North,355,0.0,0.0,54,0.00,FEW,,0.00,105.0,WeatherDisplay:10.37,2013-06-26 16:21:00,
2013-06-26 11:26:00,90.6,72.2,29.77,North,10,3.0,3.0,55,0.00,FEW,,0.00,155.0,WeatherDisplay:10.37,2013-06-26 16:26:00,
2013-06-26 11:31:00,91.0,70.9,29.77,NW,315,2.3,2.3,52,0.00,FEW,,0.00,200.0,WeatherDisplay:10.37,2013-06-26 16:31:00,
2013-06-26 11:36:00,91.3,72.9,29.77,NW,315,1.2,0.0,55,0.00,FEW,,0.00,132.0,WeatherDisplay:10.37,2013-06-26 16:36:00,
2013-06-26 11:41:00,91.5,71.4,29.77,North,350,4.6,4.6,52,0.00,FEW,,0.00,130.0,WeatherDisplay:10.37,2013-06-26 16:41:00,
2013-06-26 11:46:00,91.5,70.8,29.77,NNW,335,3.5,3.5,51,0.00,FEW,,0.00,144.0,WeatherDisplay:10.37,2013-06-26 16:46:00,
2013-06-26 11:51:00,91.8,70.5,29.78,NE,40,1.2,1.2,50,0.00,FEW,,0.00,343.0,WeatherDisplay:10.37,2013-06-26 16:51:00,
2013-06-26 11:56:00,92.2,71.5,29.78,North,9,4.6,4.6,51,0.00,FEW,,0.00,547.0,WeatherDisplay:10.37,2013-06-26 16:56:00,
2013-06-26 12:01:00,92.5,70.6,29.78,NNE,13,6.9,6.9,49,0.00,FEW,,0.00,860.0,WeatherDisplay:10.37,2013-06-26 17:01:00,
2013-06-26 12:06:00,92.8,70.8,29.78,NE,56,6.9,6.9,49,0.00,FEW,,0.00,874.0,WeatherDisplay:10.37,2013-06-26 17:06:00,
2013-06-26 12:11:00,93.0,71.0,29.78,NW,326,1.2,1.2,49,0.00,CLR,,0.00,879.0,WeatherDisplay:10.37,2013-06-26 17:11:00,
2013-06-26 12:16:00,93.3,70.7,29.78,North,5,8.0,8.0,48,0.00,CLR,,0.00,889.0,WeatherDisplay:10.37,2013-06-26 17:16:00,
2013-06-26 12:21:00,93.6,69.7,29.78,ENE,59,6.9,6.9,46,0.00,CLR,,0.00,895.0,WeatherDisplay:10.37,2013-06-26 17:21:00,
2013-06-26 12:26:00,93.8,71.1,29.78,North,355,3.5,3.5,48,0.00,CLR,,0.00,904.0,WeatherDisplay:10.37,2013-06-26 17:26:00,
2013-06-26 12:31:00,94.1,70.2,29.78,ESE,103,3.5,3.5,46,0.00,CLR,,0.00,909.0,WeatherDisplay:10.37,2013-06-26 17:31:00,
2013-06-26 12:36:00,94.5,71.8,29.78,NNE,26,4.6,4.6,48,0.00,CLR,,0.00,912.0,WeatherDisplay:10.37,2013-06-26 17:36:00,
2013-06-26 12:41:00,94.7,70.1,29.78,East,93,2.3,2.3,45,0.00,CLR,,0.00,919.0,WeatherDisplay:10.37,2013-06-26 17:41:00,
2013-06-26 12:46:00,95.1,71.7,29.78,NE,48,3.5,3.5,47,0.00,CLR,,0.00,925.0,WeatherDisplay:10.37,2013-06-26 17:46:00,
2013-06-26 12:51:00,95.5,70.8,29.78,NNE,27,3.5,3.5,45,0.00,CLR,,0.00,921.0,WeatherDisplay:10.37,2013-06-26 17:51:00,
2013-06-26 12:56:00,95.8,71.1,29.78,NNE,32,2.3,2.3,45,0.00,CLR,,0.00,928.0,WeatherDisplay:10.37,2013-06-26 17:56:00,
2013-06-26 13:01:00,95.9,71.1,29.78,East,90,1.2,0.0,45,0.00,CLR,,0.00,939.0,WeatherDisplay:10.37,2013-06-26 18:01:00,
2013-06-26 13:06:00,96.1,72.0,29.78,ENE,63,3.5,3.5,46,0.00,CLR,,0.00,939.0,WeatherDisplay:10.37,2013-06-26 18:06:00,
2013-06-26 13:11:00,96.3,71.5,29.78,SSW,197,0.0,0.0,45,0.00,CLR,,0.00,940.0,WeatherDisplay:10.37,2013-06-26 18:11:00,
2013-06-26 13:16:00,96.4,70.9,29.78,ENE,65,3.5,3.5,44,0.00,CLR,,0.00,944.0,WeatherDisplay:10.37,2013-06-26 18:16:00,
2013-06-26 13:21:00,96.5,73.0,29.77,ESE,117,1.2,1.2,47,0.00,CLR,,0.00,942.0,WeatherDisplay:10.37,2013-06-26 18:21:00,
2013-06-26 13:26:00,96.7,71.2,29.77,East,94,1.2,1.2,44,0.00,CLR,,0.00,942.0,WeatherDisplay:10.37,2013-06-26 18:26:00,
2013-06-26 13:31:00,96.9,73.3,29.77,East,96,1.2,1.2,47,0.00,CLR,,0.00,947.0,WeatherDisplay:10.37,2013-06-26 18:31:00,
2013-06-26 13:36:00,97.0,72.1,29.77,East,90,2.3,2.3,45,0.00,CLR,,0.00,949.0,WeatherDisplay:10.37,2013-06-26 18:36:00,
2013-06-26 13:41:00,97.0,70.8,29.77,ENE,60,1.2,1.2,43,0.00,CLR,,0.00,951.0,WeatherDisplay:10.37,2013-06-26 18:41:00,
2013-06-26 13:46:00,97.1,72.9,29.77,East,100,3.5,3.5,46,0.00,CLR,,0.00,946.0,WeatherDisplay:10.37,2013-06-26 18:46:00,
2013-06-26 13:51:00,97.2,76.1,29.77,SE,132,1.2,1.2,51,0.00,CLR,,0.00,947.0,WeatherDisplay:10.37,2013-06-26 18:51:00,
2013-06-26 13:56:00,97.6,73.3,29.77,SE,126,1.0,1.0,46,0.00,CLR,,0.00,947.0,WeatherDisplay:10.37,2013-06-26 18:56:00,
2013-06-26 14:01:00,98.0,76.2,29.76,SW,225,1.2,1.2,50,0.00,CLR,,0.00,953.0,WeatherDisplay:10.37,2013-06-26 19:01:00,
2013-06-26 14:06:00,98.1,71.1,29.76,East,86,2.3,2.3,42,0.00,CLR,,0.00,949.0,WeatherDisplay:10.37,2013-06-26 19:06:00,
2013-06-26 14:11:00,98.2,70.5,29.76,East,83,2.3,2.3,41,0.00,FEW,,0.00,949.0,WeatherDisplay:10.37,2013-06-26 19:11:00,
2013-06-26 14:16:00,98.3,71.3,29.76,SE,137,1.2,1.2,42,0.00,FEW,,0.00,942.0,WeatherDisplay:10.37,2013-06-26 19:16:00,
2013-06-26 14:21:00,98.5,71.4,29.76,SSE,151,2.3,2.3,42,0.00,FEW,,0.00,942.0,WeatherDisplay:10.37,2013-06-26 19:21:00,
2013-06-26 14:26:00,98.5,71.4,29.76,ESE,102,1.2,1.2,42,0.00,FEW,,0.00,939.0,WeatherDisplay:10.37,2013-06-26 19:26:00,
2013-06-26 14:31:00,98.7,72.3,29.76,ESE,104,2.3,2.3,43,0.00,FEW,,0.00,940.0,WeatherDisplay:10.37,2013-06-26 19:31:00,
2013-06-26 14:36:00,98.5,71.4,29.76,ENE,65,2.3,2.3,42,0.00,FEW,,0.00,930.0,WeatherDisplay:10.37,2013-06-26 19:36:00,
2013-06-26 14:41:00,98.5,71.4,29.76,ESE,107,2.3,2.3,42,0.00,FEW,,0.00,930.0,WeatherDisplay:10.37,2013-06-26 19:41:00,
2013-06-26 14:46:00,98.5,70.0,29.76,East,84,2.3,2.3,40,0.00,FEW,,0.00,926.0,WeatherDisplay:10.37,2013-06-26 19:46:00,
2013-06-26 14:51:00,98.4,72.1,29.76,ENE,67,1.2,1.2,43,0.00,FEW,,0.00,919.0,WeatherDisplay:10.37,2013-06-26 19:51:00,
2013-06-26 14:56:00,98.4,70.6,29.76,East,92,3.5,3.5,41,0.00,FEW,,0.00,914.0,WeatherDisplay:10.37,2013-06-26 19:56:00,
2013-06-26 15:01:00,98.6,73.6,29.76,ENE,76,2.3,2.3,45,0.00,FEW,,0.00,902.0,WeatherDisplay:10.37,2013-06-26 20:01:00,
2013-06-26 15:06:00,98.8,70.3,29.76,ESE,107,3.5,3.5,40,0.00,FEW,,0.00,898.0,WeatherDisplay:10.37,2013-06-26 20:06:00,
2013-06-26 15:11:00,98.7,69.4,29.76,ENE,74,2.3,2.3,39,0.00,FEW,,0.00,895.0,WeatherDisplay:10.37,2013-06-26 20:11:00,
2013-06-26 15:16:00,98.7,70.2,29.76,East,82,3.5,3.5,40,0.00,FEW,,0.00,882.0,WeatherDisplay:10.37,2013-06-26 20:16:00,
2013-06-26 15:21:00,98.9,71.8,29.76,East,86,3.5,3.5,42,0.00,FEW,,0.00,877.0,WeatherDisplay:10.37,2013-06-26 20:21:00,
2013-06-26 15:26:00,99.0,70.5,29.76,East,95,3.0,3.0,40,0.00,FEW,,0.00,872.0,WeatherDisplay:10.37,2013-06-26 20:26:00,
2013-06-26 15:31:00,99.1,72.7,29.76,East,94,0.0,0.0,43,0.00,FEW,,0.00,860.0,WeatherDisplay:10.37,2013-06-26 20:31:00,
2013-06-26 15:36:00,99.4,71.5,29.76,ESE,114,3.5,3.5,41,0.00,FEW,,0.00,860.0,WeatherDisplay:10.37,2013-06-26 20:36:00,
2013-06-26 15:41:00,99.4,72.9,29.77,East,92,2.3,2.3,43,0.00,FEW,,0.00,854.0,WeatherDisplay:10.37,2013-06-26 20:41:00,
2013-06-26 15:46:00,99.4,69.3,29.76,ENE,65,2.3,0.0,38,0.00,FEW,,0.00,842.0,WeatherDisplay:10.37,2013-06-26 20:46:00,
2013-06-26 15:51:00,99.6,69.5,29.76,East,82,2.3,2.3,38,0.00,FEW,,0.00,840.0,WeatherDisplay:10.37,2013-06-26 20:51:00,
2013-06-26 15:56:00,99.6,69.5,29.76,East,81,2.3,2.3,38,0.00,FEW,,0.00,824.0,WeatherDisplay:10.37,2013-06-26 20:56:00,
2013-06-26 16:01:00,99.7,69.6,29.76,ESE,105,2.3,2.3,38,0.00,FEW,,0.00,807.0,WeatherDisplay:10.37,2013-06-26 21:01:00,
2013-06-26 16:06:00,99.8,70.4,29.76,South,173,2.3,2.3,39,0.00,FEW,,0.00,809.0,WeatherDisplay:10.37,2013-06-26 21:06:00,
2013-06-26 16:11:00,100.0,70.6,29.76,SE,129,1.2,1.2,39,0.00,CLR,,0.00,793.0,WeatherDisplay:10.37,2013-06-26 21:11:00,
2013-06-26 16:16:00,100.1,67.5,29.76,SE,140,2.3,2.3,35,0.00,CLR,,0.00,793.0,WeatherDisplay:10.37,2013-06-26 21:16:00,
2013-06-26 16:21:00,100.1,66.7,29.76,East,96,2.3,2.3,34,0.00,CLR,,0.00,788.0,WeatherDisplay:10.37,2013-06-26 21:21:00,
2013-06-26 16:26:00,100.0,67.4,29.76,SSE,155,1.2,1.2,35,0.00,CLR,,0.00,772.0,WeatherDisplay:10.37,2013-06-26 21:26:00,
2013-06-26 16:31:00,100.0,69.1,29.76,ESE,109,2.3,2.3,37,0.00,CLR,,0.00,754.0,WeatherDisplay:10.37,2013-06-26 21:31:00,
2013-06-26 16:36:00,100.0,68.3,29.76,East,93,2.3,2.3,36,0.00,CLR,,0.00,744.0,WeatherDisplay:10.37,2013-06-26 21:36:00,
2013-06-26 16:41:00,99.9,70.5,29.76,SE,142,1.2,0.0,39,0.00,CLR,,0.00,731.0,WeatherDisplay:10.37,2013-06-26 21:41:00,
2013-06-26 16:46:00,100.0,67.4,29.76,East,86,2.3,2.3,35,0.00,CLR,,0.00,722.0,WeatherDisplay:10.37,2013-06-26 21:46:00,
2013-06-26 16:51:00,100.2,70.0,29.76,NE,44,1.2,1.2,38,0.00,CLR,,0.00,705.0,WeatherDisplay:10.37,2013-06-26 21:51:00,
2013-06-26 16:56:00,100.4,70.2,29.76,East,100,1.2,1.2,38,0.00,CLR,,0.00,693.0,WeatherDisplay:10.37,2013-06-26 21:56:00,
2013-06-26 17:01:00,100.5,70.3,29.75,East,96,3.5,3.5,38,0.00,CLR,,0.00,679.0,WeatherDisplay:10.37,2013-06-26 22:01:00,
2013-06-26 17:06:00,100.4,72.4,29.75,ESE,107,2.3,2.3,41,0.00,CLR,,0.00,663.0,WeatherDisplay:10.37,2013-06-26 22:06:00,
2013-06-26 17:11:00,100.5,71.0,29.75,SE,134,1.2,1.2,39,0.00,FEW,,0.00,642.0,WeatherDisplay:10.37,2013-06-26 22:11:00,
2013-06-26 17:16:00,100.6,71.1,29.75,East,80,1.2,0.0,39,0.00,FEW,,0.00,631.0,WeatherDisplay:10.37,2013-06-26 22:16:00,
2013-06-26 17:21:00,101.0,72.2,29.75,SSE,148,4.6,4.6,40,0.00,FEW,,0.00,610.0,WeatherDisplay:10.37,2013-06-26 22:21:00,
2013-06-26 17:26:00,101.2,72.4,29.75,ESE,119,3.5,3.5,40,0.00,FEW,,0.00,596.0,WeatherDisplay:10.37,2013-06-26 22:26:00,
2013-06-26 17:31:00,101.1,70.8,29.75,SE,134,3.5,3.5,38,0.00,FEW,,0.00,582.0,WeatherDisplay:10.37,2013-06-26 22:31:00,
2013-06-26 17:36:00,101.1,71.6,29.75,ESE,114,2.3,2.3,39,0.00,FEW,,0.00,573.0,WeatherDisplay:10.37,2013-06-26 22:36:00,
2013-06-26 17:41:00,101.0,69.1,29.75,SE,128,5.8,5.8,36,0.00,FEW,,0.00,555.0,WeatherDisplay:10.37,2013-06-26 22:41:00,
2013-06-26 17:46:00,101.0,68.3,29.75,SSE,157,1.2,0.0,35,0.00,FEW,,0.00,545.0,WeatherDisplay:10.37,2013-06-26 22:46:00,
2013-06-26 17:51:00,101.0,69.9,29.75,SE,143,3.5,3.5,37,0.00,FEW,,0.00,519.0,WeatherDisplay:10.37,2013-06-26 22:51:00,
2013-06-26 17:56:00,100.9,67.4,29.75,East,95,3.5,3.5,34,0.00,FEW,,0.00,473.0,WeatherDisplay:10.37,2013-06-26 22:56:00,
2013-06-26 18:01:00,100.8,71.3,29.75,East,101,3.5,3.5,39,0.00,FEW,,0.00,98.0,WeatherDisplay:10.37,2013-06-26 23:01:00,
2013-06-26 18:06:00,100.7,71.2,29.75,SE,144,3.5,3.5,39,0.00,FEW,,0.00,97.0,WeatherDisplay:10.37,2013-06-26 23:06:00,
2013-06-26 18:11:00,100.5,70.3,29.75,SSE,150,4.6,4.6,38,0.00,FEW,,0.00,93.0,WeatherDisplay:10.37,2013-06-26 23:11:00,
2013-06-26 18:16:00,100.3,71.6,29.75,SE,133,3.5,3.5,40,0.00,FEW,,0.00,93.0,WeatherDisplay:10.37,2013-06-26 23:16:00,
2013-06-26 18:21:00,99.9,71.3,29.75,ESE,104,2.3,2.3,40,0.00,FEW,,0.00,91.0,WeatherDisplay:10.37,2013-06-26 23:21:00,
2013-06-26 18:26:00,99.6,72.4,29.75,ESE,114,2.0,2.0,42,0.00,FEW,,0.00,88.0,WeatherDisplay:10.37,2013-06-26 23:26:00,
2013-06-26 18:31:00,99.2,72.1,29.75,SSE,165,3.5,3.5,42,0.00,FEW,,0.00,86.0,WeatherDisplay:10.37,2013-06-26 23:31:00,
2013-06-26 18:36:00,98.7,72.3,29.75,SE,144,4.6,4.6,43,0.00,FEW,,0.00,83.0,WeatherDisplay:10.37,2013-06-26 23:36:00,
2013-06-26 18:41:00,98.4,72.1,29.75,SE,136,6.9,6.9,43,0.00,FEW,,0.00,81.0,WeatherDisplay:10.37,2013-06-26 23:41:00,
2013-06-26 18:46:00,98.1,71.8,29.75,ESE,123,2.0,2.0,43,0.00,FEW,,0.00,79.0,WeatherDisplay:10.37,2013-06-26 23:46:00,
2013-06-26 18:51:00,97.8,72.2,29.75,ESE,116,3.5,3.5,44,0.00,FEW,,0.00,76.0,WeatherDisplay:10.37,2013-06-26 23:51:00,
2013-06-26 18:56:00,97.5,71.9,29.75,SE,138,3.5,0.0,44,0.00,FEW,,0.00,74.0,WeatherDisplay:10.37,2013-06-26 23:56:00,
2013-06-26 19:01:00,97.3,71.1,29.75,SSE,157,8.1,8.1,43,0.00,FEW,,0.00,72.0,WeatherDisplay:10.37,2013-06-27 00:01:00,
2013-06-26 19:06:00,97.1,71.6,29.75,ESE,117,3.5,3.5,44,0.00,FEW,,0.00,69.0,WeatherDisplay:10.37,2013-06-27 00:06:00,
2013-06-26 19:11:00,96.9,72.0,29.75,East,82,2.3,2.3,45,0.00,FEW,,0.00,67.0,WeatherDisplay:10.37,2013-06-27 00:11:00,
2013-06-26 19:16:00,96.6,71.8,29.75,SE,140,3.5,3.5,45,0.00,FEW,,0.00,63.0,WeatherDisplay:10.37,2013-06-27 00:16:00,
2013-06-26 19:21:00,96.4,70.9,29.75,ESE,103,3.5,3.5,44,0.00,FEW,,0.00,62.0,WeatherDisplay:10.37,2013-06-27 00:21:00,
2013-06-26 19:26:00,96.1,71.3,29.75,SSE,158,3.5,3.5,45,0.00,FEW,,0.00,56.0,WeatherDisplay:10.37,2013-06-27 00:26:00,
2013-06-26 19:31:00,95.9,71.1,29.75,SE,129,1.2,1.2,45,0.00,FEW,,0.00,54.0,WeatherDisplay:10.37,2013-06-27 00:31:00,
2013-06-26 19:36:00,95.6,71.5,29.75,SE,140,4.0,4.0,46,0.00,FEW,,0.00,49.0,WeatherDisplay:10.37,2013-06-27 00:36:00,
2013-06-26 19:41:00,95.3,71.2,29.75,SE,132,1.2,0.0,46,0.00,FEW,,0.00,47.0,WeatherDisplay:10.37,2013-06-27 00:41:00,
2013-06-26 19:46:00,94.9,70.9,29.76,ESE,109,3.5,3.5,46,0.00,FEW,,0.00,44.0,WeatherDisplay:10.37,2013-06-27 00:46:00,
2013-06-26 19:51:00,94.6,71.2,29.76,SSE,153,1.2,1.2,47,0.00,FEW,,0.00,35.0,WeatherDisplay:10.37,2013-06-27 00:51:00,
2013-06-26 19:56:00,94.3,71.6,29.76,SSE,148,3.5,0.0,48,0.00,FEW,,0.00,26.0,WeatherDisplay:10.37,2013-06-27 00:56:00,
2013-06-26 20:01:00,93.9,71.2,29.76,SE,143,0.0,0.0,48,0.00,FEW,,0.00,25.0,WeatherDisplay:10.37,2013-06-27 01:01:00,
2013-06-26 20:06:00,93.5,70.9,29.76,East,82,2.3,2.3,48,0.00,FEW,,0.00,25.0,WeatherDisplay:10.37,2013-06-27 01:06:00,
2013-06-26 20:11:00,93.2,71.8,29.76,East,82,0.0,0.0,50,0.00,FEW,,0.00,19.0,WeatherDisplay:10.37,2013-06-27 01:11:00,
2013-06-26 20:16:00,92.8,72.0,29.76,East,82,0.0,0.0,51,0.00,FEW,,0.00,16.0,WeatherDisplay:10.37,2013-06-27 01:16:00,
2013-06-26 20:21:00,92.5,72.3,29.76,East,82,0.0,0.0,52,0.00,FEW,,0.00,19.0,WeatherDisplay:10.37,2013-06-27 01:21:00,
2013-06-26 20:26:00,92.1,71.9,29.76,East,82,0.0,0.0,52,0.00,FEW,,0.00,14.0,WeatherDisplay:10.37,2013-06-27 01:26:00,
2013-06-26 20:31:00,91.8,72.2,29.77,East,82,0.0,0.0,53,0.00,FEW,,0.00,12.0,WeatherDisplay:10.37,2013-06-27 01:31:00,
2013-06-26 20:36:00,91.5,72.5,29.77,SE,142,1.2,1.2,54,0.00,FEW,,0.00,11.0,WeatherDisplay:10.37,2013-06-27 01:36:00,
2013-06-26 20:41:00,91.2,72.2,29.77,SE,142,0.0,0.0,54,0.00,FEW,,0.00,9.0,WeatherDisplay:10.37,2013-06-27 01:41:00,
2013-06-26 20:46:00,90.9,72.5,29.77,SE,142,1.2,0.0,55,0.00,FEW,,0.00,7.0,WeatherDisplay:10.37,2013-06-27 01:46:00,
2013-06-26 20:51:00,90.7,72.3,29.77,SE,142,1.2,0.0,55,0.00,FEW,,0.00,0.0,WeatherDisplay:10.37,2013-06-27 01:51:00,
2013-06-26 20:56:00,90.6,72.8,29.77,SE,142,1.2,0.0,56,0.00,FEW,,0.00,0.0,WeatherDisplay:10.37,2013-06-27 01:56:00,
2013-06-26 21:01:00,90.4,72.6,29.78,SE,142,1.2,1.2,56,0.00,SCT,,0.00,0.0,WeatherDisplay:10.37,2013-06-27 02:01:00,
2013-06-26 21:06:00,90.1,73.3,29.77,SSW,193,1.2,0.0,58,0.00,SCT,,0.00,0.0,WeatherDisplay:10.37,2013-06-27 02:06:00,
2013-06-26 21:11:00,89.8,73.0,29.78,South,169,1.2,1.2,58,0.00,SCT,,0.00,0.0,WeatherDisplay:10.37,2013-06-27 02:11:00,
2013-06-26 21:16:00,89.6,72.9,29.78,South,169,0.0,0.0,58,0.00,SCT,,0.00,0.0,WeatherDisplay:10.37,2013-06-27 02:16:00,
2013-06-26 21:21:00,89.4,73.2,29.78,South,169,1.2,1.2,59,0.00,SCT,,0.00,0.0,WeatherDisplay:10.37,2013-06-27 02:21:00,
2013-06-26 21:26:00,89.2,73.5,29.78,South,171,1.2,1.2,60,0.00,SCT,,0.00,0.0,WeatherDisplay:10.37,2013-06-27 02:26:00,
2013-06-26 21:31:00,89.0,73.3,29.78,SSE,150,0.0,0.0,60,0.00,SCT,,0.00,0.0,WeatherDisplay:10.37,2013-06-27 02:31:00,
2013-06-26 21:36:00,88.7,73.5,29.78,SSE,150,1.2,0.0,61,0.00,SCT,,0.00,0.0,WeatherDisplay:10.37,2013-06-27 02:36:00,
2013-06-26 21:41:00,88.6,73.9,29.79,SE,137,3.5,3.5,62,0.00,SCT,,0.00,0.0,WeatherDisplay:10.37,2013-06-27 02:41:00,
2013-06-26 21:46:00,88.4,73.7,29.79,ESE,123,2.3,2.3,62,0.00,SCT,,0.00,0.0,WeatherDisplay:10.37,2013-06-27 02:46:00,
2013-06-26 21:51:00,88.2,74.0,29.79,ESE,119,1.2,1.2,63,0.00,SCT,,0.00,0.0,WeatherDisplay:10.37,2013-06-27 02:51:00,
2013-06-26 21:56:00,88.0,74.3,29.79,SSE,164,1.2,1.2,64,0.00,SCT,,0.00,0.0,WeatherDisplay:10.37,2013-06-27 02:56:00,
2013-06-26 22:01:00,87.7,74.0,29.80,SSE,154,0.0,0.0,64,0.00,SCT,,0.00,0.0,WeatherDisplay:10.37,2013-06-27 03:01:00,
2013-06-26 22:06:00,87.5,74.3,29.80,SSE,151,1.2,0.0,65,0.00,SCT,,0.00,0.0,WeatherDisplay:10.37,2013-06-27 03:06:00,
2013-06-26 22:11:00,87.3,74.5,29.80,SE,138,2.3,2.3,66,0.00,SCT,,0.00,0.0,WeatherDisplay:10.37,2013-06-27 03:11:00,
2013-06-26 22:16:00,87.1,74.4,29.80,ESE,123,1.2,0.0,66,0.00,SCT,,0.00,0.0,WeatherDisplay:10.37,2013-06-27 03:16:00,
2013-06-26 22:21:00,86.8,74.5,29.81,ESE,123,0.0,0.0,67,0.00,SCT,,0.00,0.0,WeatherDisplay:10.37,2013-06-27 03:21:00,
2013-06-26 22:26:00,86.6,74.3,29.81,South,180,1.2,0.0,67,0.00,SCT,,0.00,0.0,WeatherDisplay:10.37,2013-06-27 03:26:00,
2013-06-26 22:31:00,86.3,74.5,29.81,SSE,155,1.2,1.2,68,0.00,SCT,,0.00,0.0,WeatherDisplay:10.37,2013-06-27 03:31:00,
2013-06-26 22:36:00,86.0,74.6,29.81,SE,135,3.5,3.5,69,0.00,SCT,,0.00,0.0,WeatherDisplay:10.37,2013-06-27 03:36:00,
2013-06-26 22:41:00,85.7,74.8,29.81,ESE,118,1.0,1.0,70,0.00,SCT,,0.00,0.0,WeatherDisplay:10.37,2013-06-27 03:41:00,
2013-06-26 22:46:00,85.5,74.6,29.81,SE,124,3.5,3.5,70,0.00,SCT,,0.00,0.0,WeatherDisplay:10.37,2013-06-27 03:46:00,
2013-06-26 22:51:00,85.2,74.7,29.81,SE,135,0.0,0.0,71,0.00,SCT,,0.00,0.0,WeatherDisplay:10.37,2013-06-27 03:51:00,
2013-06-26 22:56:00,84.9,74.4,29.81,SE,135,2.3,2.3,71,0.00,SCT,,0.00,0.0,WeatherDisplay:10.37,2013-06-27 03:56:00,
2013-06-26 23:01:00,84.7,74.7,29.81,South,180,3.5,3.5,72,0.00,SCT,,0.00,0.0,WeatherDisplay:10.37,2013-06-27 04:01:00,
2013-06-26 23:06:00,84.5,74.9,29.81,East,84,1.2,1.2,73,0.00,SCT,,0.00,0.0,WeatherDisplay:10.37,2013-06-27 04:06:00,
2013-06-26 23:11:00,84.4,74.8,29.81,SE,142,3.5,3.5,73,0.00,SCT,,0.00,0.0,WeatherDisplay:10.37,2013-06-27 04:11:00,
2013-06-26 23:16:00,84.2,74.6,29.81,SSE,165,1.2,1.2,73,0.00,SCT,,0.00,0.0,WeatherDisplay:10.37,2013-06-27 04:16:00,
2013-06-26 23:21:00,84.1,74.9,29.81,SE,134,2.3,2.3,74,0.00,SCT,,0.00,0.0,WeatherDisplay:10.37,2013-06-27 04:21:00,
2013-06-26 23:26:00,83.9,74.7,29.81,ESE,107,3.5,3.5,74,0.00,SCT,,0.00,0.0,WeatherDisplay:10.37,2013-06-27 04:26:00,
2013-06-26 23:31:00,83.8,74.6,29.81,SE,125,3.5,3.5,74,0.00,SCT,,0.00,0.0,WeatherDisplay:10.37,2013-06-27 04:31:00,
2013-06-26 23:36:00,83.7,74.9,29.81,SE,137,3.5,3.5,75,0.00,SCT,,0.00,0.0,WeatherDisplay:10.37,2013-06-27 04:36:00,
2013-06-26 23:41:00,83.6,74.8,29.81,SE,142,4.6,4.6,75,0.00,SCT,,0.00,0.0,WeatherDisplay:10.37,2013-06-27 04:41:00,
2013-06-26 23:46:00,83.5,74.7,29.81,South,190,1.2,1.2,75,0.00,SCT,,0.00,0.0,WeatherDisplay:10.37,2013-06-27 04:46:00,
2013-06-26 23:51:00,83.4,74.6,29.82,SE,130,2.3,2.3,75,0.00,SCT,,0.00,0.0,WeatherDisplay:10.37,2013-06-27 04:51:00,
2013-06-26 23:56:00,83.3,74.5,29.82,SE,134,2.3,2.3,75,0.00,SCT,,0.00,0.0,WeatherDisplay:10.37,2013-06-27 04:56:00,